,,Stat6,,Stat2,,Stat8,,Stat9,,Stat10,,Wind1,,Wind1,
time,status,PA1M_AVG,status,PR1M_SUM,status,RH1M_AVG,status,SR1M_AVG,status,TA1M_AVG,status,W1dAve1m,status,W1sAve1m,
2006-05-24, 00:00:00,VALID,916.901,VALID,0,VALID,82.4979,VALID,0,INVALID,0,VALID,153,VALID,0.577934,
2006-05-24, 00:01:00,VALID,916.91,VALID,0,VALID,82.522,VALID,0,INVALID,0,VALID,157,VALID,0.0832031,
2006-05-24, 00:33:00,VALID,916.64,VALID,0,VALID,82.4564,VALID,0,INVALID,0,VALID,48,VALID,0.916406,
2006-05-24, 00:34:00,VALID,916.634,VALID,0,VALID,82.5538,VALID,0,INVALID,0,VALID,48,VALID,0.891369,
2006-05-24, 00:35:00,VALID,916.631,VALID,0,VALID,82.653,VALID,-0.0339617,VALID,-0.0016,VALID,48,VALID,0.652439,
2006-05-24, 01:07:00,VALID,916.02,VALID,0,VALID,83.8786,VALID,0,INVALID,0,VALID,156,VALID,0.0359375,
2006-05-24, 01:08:00,VALID,916.018,VALID,0,VALID,83.8916,VALID,0,VALID,16.2973,VALID,140,VALID,0.278832,
2006-05-24, 01:09:00,VALID,916.006,VALID,0,VALID,83.9056,VALID,0,INVALID,0,VALID,147,VALID,0.407584,
2006-05-24, 01:10:00,VALID,915.988,VALID,0,VALID,83.9297,VALID,0,INVALID,0,VALID,148,VALID,0.265053,
2006-05-24, 01:11:00,VALID,915.967,VALID,0,VALID,83.9577,VALID,0,INVALID,0,VALID,148,VALID,0.157315,
2006-05-24, 01:12:00,VALID,915.965,VALID,0,VALID,83.9742,VALID,-0.0169808,INVALID,0,VALID,148,VALID,0.00706845,
2006-05-24, 01:14:00,VALID,915.93,VALID,0,VALID,83.9961,VALID,0,INVALID,0,VALID,148,VALID,0.100485,
2006-05-24, 01:15:00,VALID,915.924,VALID,0,VALID,84.0035,VALID,0,INVALID,0,VALID,148,VALID,0.0159801,
2006-05-24, 01:16:00,VALID,915.903,VALID,0,VALID,83.9628,VALID,0,INVALID,0,VALID,148,VALID,0,
2006-05-24, 01:48:00,VALID,915.631,VALID,0,VALID,83.5673,VALID,0,INVALID,0,VALID,34,VALID,0.413542,
2006-05-24, 01:49:00,VALID,915.628,VALID,0,VALID,83.4541,VALID,0,VALID,-0.0016,VALID,34,VALID,0.031808,
2006-05-24, 01:50:00,VALID,915.613,VALID,0,VALID,83.5063,VALID,-0.0169808,INVALID,0,VALID,34,VALID,0,
2006-05-24, 01:52:00,VALID,915.61,VALID,0,VALID,83.7535,VALID,0,VALID,-0.0016,VALID,34,VALID,0,
2006-05-24, 01:53:00,VALID,915.598,VALID,0,VALID,83.7975,VALID,0,VALID,-0.0016,VALID,34,VALID,0,
2006-05-24, 01:54:00,VALID,915.588,VALID,0,VALID,83.8038,VALID,0,VALID,-0.0016,VALID,48,VALID,0.208841,
2006-05-24, 09:23:00,VALID,915.947,VALID,0,VALID,46.177,VALID,0,INVALID,0,VALID,143,VALID,2.19327,
2006-05-24, 09:24:00,VALID,915.946,VALID,0,VALID,47.207,VALID,0,VALID,-0.0016,VALID,105,VALID,2.24982,
2006-05-24, 09:25:00,VALID,915.922,VALID,0,VALID,46.4962,VALID,0.0169808,VALID,-0.0016,VALID,97,VALID,2.79635,
2006-05-24, 09:26:00,VALID,915.912,VALID,0,VALID,48.6732,VALID,0,INVALID,0,VALID,82,VALID,2.40643,
2006-05-24, 09:27:00,VALID,915.85,VALID,0,VALID,48.6465,VALID,0,INVALID,0,VALID,43,VALID,2.94912,
2006-05-24, 11:22:00,VALID,915.868,VALID,0,VALID,47.8454,VALID,0,VALID,-0.0016,VALID,117,VALID,2.63388,
2006-05-24, 11:23:00,VALID,915.835,VALID,0,VALID,46.9133,VALID,0,INVALID,0,VALID,148,VALID,1.36928,
2006-05-24, 11:25:00,VALID,915.788,VALID,0,VALID,47.5421,VALID,0,INVALID,0,VALID,103,VALID,1.35776,
2006-05-24, 11:26:00,VALID,915.797,VALID,0,VALID,47.4766,VALID,0.0169808,INVALID,0,VALID,136,VALID,1.96646,
2006-05-24, 11:27:00,VALID,915.784,VALID,0,VALID,46.2419,VALID,0,INVALID,0,VALID,141,VALID,2.87656,
2006-05-24, 11:28:00,VALID,915.756,VALID,0,VALID,44.5608,VALID,0,INVALID,0,VALID,144,VALID,2.96584,
2006-05-24, 11:29:00,VALID,915.731,VALID,0,VALID,46.1071,VALID,0.0169808,INVALID,0,VALID,104,VALID,1.84242,
2006-05-24, 11:31:00,VALID,915.69,VALID,0,VALID,45.2971,VALID,0,INVALID,0,VALID,204,VALID,1.73033,
2006-05-24, 11:32:00,VALID,915.69,VALID,0,VALID,45.7002,VALID,0,INVALID,0,VALID,167,VALID,2.34794,
2006-05-24, 11:33:00,VALID,915.686,VALID,0,VALID,43.3439,VALID,0,INVALID,0,VALID,170,VALID,2.46181,
2006-05-24, 11:34:00,VALID,915.655,VALID,0,VALID,44.215,VALID,0,INVALID,0,VALID,193,VALID,1.31892,
2006-05-24, 11:35:00,VALID,915.653,VALID,0,VALID,46.2432,VALID,0,INVALID,0,VALID,101,VALID,0.718387,
2006-05-24, 11:36:00,VALID,915.653,VALID,0,VALID,45.0962,VALID,0,INVALID,0,VALID,152,VALID,0.699405,
2006-05-24, 11:37:00,VALID,915.66,VALID,0,VALID,45.746,VALID,0.0169808,VALID,-0.0016,VALID,78,VALID,1.52168,
2006-05-24, 11:38:00,VALID,915.652,VALID,0,VALID,47.5949,VALID,0.0849042,VALID,-0.0016,VALID,64,VALID,2.05505,
2006-05-24, 11:49:00,VALID,915.525,VALID,0,VALID,46.5087,VALID,0,INVALID,0,VALID,125,VALID,1.06681,
2006-05-24, 11:50:00,VALID,915.523,VALID,0,VALID,47.2172,VALID,0.0169808,VALID,-0.0016,VALID,120,VALID,1.59304,
2006-05-24, 11:51:00,VALID,915.495,VALID,0,VALID,46.2114,VALID,0.0339617,INVALID,0,VALID,149,VALID,1.5333,
2006-05-24, 11:52:00,VALID,915.483,VALID,0,VALID,45.32,VALID,0.0339617,INVALID,0,VALID,154,VALID,1.96913,
2006-05-24, 11:54:00,VALID,915.45,VALID,0,VALID,45.0396,VALID,0.0254712,INVALID,0,VALID,138,VALID,1.90867,
2006-05-24, 11:55:00,VALID,915.437,VALID,0,VALID,46.9934,VALID,0,VALID,-0.0016,VALID,101,VALID,2.59642,
2006-05-24, 11:56:00,VALID,915.434,VALID,0,VALID,43.4838,VALID,0.0169808,INVALID,0,VALID,122,VALID,2.75208,
2006-05-24, 11:57:00,VALID,915.412,VALID,0,VALID,45.6468,VALID,0,INVALID,0,VALID,112,VALID,3.25145,
2006-05-24, 11:59:00,VALID,915.363,VALID,0,VALID,49.4915,VALID,-0.0254712,INVALID,0,VALID,64,VALID,2.73087,
2006-05-24, 12:00:00,VALID,915.351,VALID,0,VALID,47.1498,VALID,-0.0169808,INVALID,0,VALID,87,VALID,1.60385,
2006-05-24, 12:01:00,VALID,915.344,VALID,0,VALID,46.425,VALID,-0.0169808,INVALID,0,VALID,94,VALID,1.76875,
2006-05-24, 12:02:00,VALID,915.342,VALID,0,VALID,45.3136,VALID,0.0169808,VALID,-0.0016,VALID,100,VALID,2.63281,
2006-05-24, 12:03:00,VALID,915.337,VALID,0,VALID,47.6165,VALID,0,INVALID,0,VALID,124,VALID,2.05078,
2006-05-24, 12:04:00,VALID,915.31,VALID,0,VALID,46.7811,VALID,0.0679233,VALID,-0.0016,VALID,83,VALID,1.74814,
2006-05-24, 12:05:00,VALID,915.295,VALID,0,VALID,47.4932,VALID,0.0509425,VALID,-0.0016,VALID,46,VALID,1.50019,
2006-05-24, 12:06:00,VALID,915.314,VALID,0,VALID,47.1422,VALID,0.0339617,VALID,-0.0016,VALID,102,VALID,1.85352,
2006-05-24, 12:07:00,VALID,915.289,VALID,0,VALID,46.4937,VALID,0.0339617,VALID,-0.0016,VALID,36,VALID,1.87705,
2006-05-24, 12:08:00,VALID,915.298,VALID,0,VALID,46.6488,VALID,0.0339617,VALID,-0.0016,VALID,95,VALID,1.50642,
2006-05-24, 12:09:00,VALID,915.316,VALID,0,VALID,47.6852,VALID,-0.0509425,VALID,-0.0016,VALID,63,VALID,1.23278,
2006-05-24, 12:10:00,VALID,915.325,VALID,0,VALID,45.6061,VALID,0.0509425,VALID,-0.0016,VALID,58,VALID,1.83018,
2006-05-24, 12:11:00,VALID,915.32,VALID,0,VALID,47.8301,VALID,-0.0679233,VALID,-0.0016,VALID,78,VALID,1.12163,
2006-05-24, 12:12:00,VALID,915.325,VALID,0,VALID,47.0875,VALID,-0.0679233,VALID,-0.0016,VALID,92,VALID,1.96875,
2006-05-24, 12:13:00,VALID,915.294,VALID,0,VALID,45.6659,VALID,0.0339617,VALID,-0.0016,VALID,70,VALID,2.38895,
2006-05-24, 12:14:00,VALID,915.284,VALID,0,VALID,46.4059,VALID,0.0339617,VALID,-0.0016,VALID,85,VALID,2.82386,
2006-05-24, 12:15:00,VALID,915.273,VALID,0,VALID,46.8866,VALID,0.0339617,VALID,-0.0016,VALID,81,VALID,1.56138,
2006-05-24, 12:16:00,VALID,915.252,VALID,0,VALID,46.6603,VALID,0.0509425,VALID,-0.0016,VALID,116,VALID,1.29233,
2006-05-24, 12:17:00,VALID,915.246,VALID,0,VALID,48.0171,VALID,0.0169808,INVALID,0,VALID,112,VALID,1.26953,
2006-05-24, 12:18:00,VALID,915.225,VALID,0,VALID,46.8955,VALID,-0.0169808,INVALID,0,VALID,77,VALID,1.9269,
2006-05-24, 12:19:00,VALID,915.213,VALID,0,VALID,46.7747,VALID,0,INVALID,0,VALID,112,VALID,1.75996,
2006-05-24, 12:20:00,VALID,915.179,VALID,0,VALID,46.5407,VALID,-0.0169808,INVALID,0,VALID,102,VALID,1.69497,
2006-05-24, 12:21:00,VALID,915.172,VALID,0,VALID,47.2363,VALID,0.0169808,VALID,-0.0016,VALID,124,VALID,1.38372,
2006-05-24, 12:22:00,VALID,915.158,VALID,0,VALID,45.3543,VALID,0.0849042,VALID,-0.0016,VALID,102,VALID,1.50672,
2006-05-24, 12:24:00,VALID,915.101,VALID,0,VALID,44.3678,VALID,0,VALID,-0.0016,VALID,141,VALID,1.48033,
2006-05-24, 12:25:00,VALID,915.071,VALID,0,VALID,44.1628,VALID,0.0509425,VALID,-0.0016,VALID,152,VALID,1.47466,
2006-05-24, 12:26:00,VALID,915.035,VALID,0,VALID,45.9774,VALID,-0.0169808,INVALID,0,VALID,108,VALID,2.21551,
2006-05-24, 12:27:00,VALID,915.024,VALID,0,VALID,46.2088,VALID,0,INVALID,0,VALID,101,VALID,1.52288,
2006-05-24, 12:29:00,VALID,915.006,VALID,0,VALID,43.7597,VALID,0.101885,VALID,-0.0016,VALID,25,VALID,2.0889,
2006-05-24, 12:30:00,VALID,914.994,VALID,0,VALID,43.096,VALID,0.0679233,VALID,-0.0016,VALID,55,VALID,2.04821,
2006-05-24, 12:31:00,VALID,914.985,VALID,0,VALID,44.3548,VALID,0.101885,VALID,-0.0016,VALID,77,VALID,2.58351,
2006-05-24, 12:32:00,VALID,914.963,VALID,0,VALID,44.847,VALID,0.0679233,VALID,-0.0016,VALID,73,VALID,2.44059,
2006-05-24, 12:33:00,VALID,914.932,VALID,0,VALID,45.6366,VALID,0.0679233,VALID,-0.0016,VALID,68,VALID,2.07241,
2006-05-24, 12:34:00,VALID,914.877,VALID,0,VALID,44.3879,VALID,0.0679233,VALID,-0.0016,VALID,127,VALID,2.52229,
2006-05-24, 12:35:00,VALID,914.831,VALID,0,VALID,44.2442,VALID,0.0849042,VALID,-0.0016,VALID,123,VALID,1.92773,
2006-05-24, 12:36:00,VALID,914.797,VALID,0,VALID,45.1636,VALID,0.0679233,VALID,-0.0016,VALID,115,VALID,2.12287,
2006-05-24, 12:37:00,VALID,914.764,VALID,0,VALID,45.3225,VALID,0.0849042,VALID,-0.0016,VALID,130,VALID,2.24041,
2006-05-24, 12:38:00,VALID,914.757,VALID,0,VALID,44.9945,VALID,0.0849042,VALID,-0.0016,VALID,121,VALID,2.04818,
2006-05-24, 12:39:00,VALID,914.737,VALID,0,VALID,45.8159,VALID,0.0849042,VALID,-0.0016,VALID,93,VALID,1.60938,
2006-05-24, 12:40:00,VALID,914.704,VALID,0,VALID,46.7582,VALID,0.0849042,VALID,-0.0016,VALID,64,VALID,3.21396,
2006-05-24, 12:41:00,VALID,914.704,VALID,0,VALID,44.496,VALID,0.0849042,VALID,-0.0016,VALID,74,VALID,2.91443,
2006-05-24, 12:42:00,VALID,914.714,VALID,0,VALID,46.6068,VALID,0.0849042,VALID,-0.0016,VALID,87,VALID,3.00639,
2006-05-24, 12:43:00,VALID,914.686,VALID,0,VALID,46.233,VALID,0.0849042,VALID,-0.0016,VALID,80,VALID,3.40607,
2006-05-24, 12:44:00,VALID,914.676,VALID,0,VALID,47.3062,VALID,-0.0169808,INVALID,0,VALID,36,VALID,3.18378,
2006-05-24, 12:45:00,VALID,914.665,VALID,0,VALID,45.1814,VALID,0,VALID,-0.0016,VALID,26,VALID,1.5387,
2006-05-24, 12:46:00,VALID,914.661,VALID,0,VALID,46.2076,VALID,0.0849042,VALID,-0.0016,VALID,72,VALID,1.38895,
2006-05-24, 12:47:00,VALID,914.639,VALID,0,VALID,45.8769,VALID,0.0849042,VALID,-0.0016,VALID,48,VALID,1.64303,
2006-05-24, 12:48:00,VALID,914.626,VALID,0,VALID,43.1811,VALID,0.0849042,VALID,-0.0016,VALID,60,VALID,2.86892,
2006-05-24, 12:49:00,VALID,914.617,VALID,0,VALID,46.2394,VALID,0.0679233,VALID,-0.0016,VALID,84,VALID,1.79755,
2006-05-24, 12:50:00,VALID,914.595,VALID,0,VALID,46.4886,VALID,0.0849042,VALID,-0.0016,VALID,89,VALID,1.75479,
2006-05-24, 12:51:00,VALID,914.59,VALID,0,VALID,46.6704,VALID,0.0679233,VALID,-0.0016,VALID,67,VALID,1.99981,
2006-05-24, 12:52:00,VALID,914.586,VALID,0,VALID,45.5819,VALID,-0.0679233,INVALID,0,VALID,53,VALID,1.5456,
2006-05-24, 12:53:00,VALID,914.565,VALID,0,VALID,47.0723,VALID,-0.0169808,INVALID,0,VALID,42,VALID,2.53924,
2006-05-24, 12:54:00,VALID,914.528,VALID,0,VALID,44.0827,VALID,-0.0339617,INVALID,0,VALID,45,VALID,2.33285,
2006-05-24, 12:55:00,VALID,914.491,VALID,0,VALID,44.2569,VALID,0,INVALID,0,VALID,67,VALID,1.95907,
2006-05-24, 12:56:00,VALID,914.452,VALID,0,VALID,45.3658,VALID,0,INVALID,0,VALID,68,VALID,2.13636,
2006-05-24, 12:57:00,VALID,914.445,VALID,0,VALID,46.3538,VALID,0,INVALID,0,VALID,93,VALID,1.89826,
2006-05-24, 12:58:00,VALID,914.406,VALID,0,VALID,46.6374,VALID,0,INVALID,0,VALID,65,VALID,2.94494,
2006-05-24, 13:30:00,VALID,914.081,VALID,0,VALID,44.8042,VALID,0.020377,INVALID,0,VALID,123,VALID,2.25833,
2006-05-24, 13:31:00,VALID,914.067,VALID,0,VALID,46.2355,VALID,0,INVALID,0,VALID,127,VALID,2.26209,
2006-05-24, 13:32:00,VALID,914.086,VALID,0,VALID,47.6597,VALID,0,INVALID,0,VALID,114,VALID,1.6471,
2006-05-24, 13:33:00,VALID,914.103,VALID,0,VALID,48.5486,VALID,0,INVALID,0,VALID,65,VALID,2.04021,
2006-05-24, 13:34:00,VALID,914.096,VALID,0,VALID,47.689,VALID,0,INVALID,0,VALID,57,VALID,2.31907,
2006-05-24, 13:35:00,VALID,914.096,VALID,0,VALID,49.3611,VALID,0.0169808,INVALID,0,VALID,51,VALID,1.69438,
2006-05-24, 13:36:00,VALID,914.1,VALID,0,VALID,48.9224,VALID,0.0169808,INVALID,0,VALID,45,VALID,1.47656,
2006-05-24, 13:37:00,VALID,914.092,VALID,0,VALID,49.5837,VALID,0,INVALID,0,VALID,67,VALID,1.40737,
2006-05-24, 13:38:00,VALID,914.085,VALID,0,VALID,50.8057,VALID,0,INVALID,0,VALID,124,VALID,1.17987,
2006-05-24, 13:39:00,VALID,914.078,VALID,0,VALID,49.3561,VALID,0,INVALID,0,VALID,117,VALID,1.58327,
2006-05-24, 13:40:00,VALID,914.066,VALID,0,VALID,50.5285,VALID,0,VALID,-0.0016,VALID,110,VALID,1.94661,
2006-05-24, 13:41:00,VALID,914.055,VALID,0,VALID,50.8769,VALID,0,INVALID,0,VALID,105,VALID,1.64474,
2006-05-24, 13:42:00,VALID,914.05,VALID,0,VALID,49.5252,VALID,0,INVALID,0,VALID,116,VALID,2.37282,
2006-05-24, 13:43:00,VALID,914.047,VALID,0,VALID,49.0013,VALID,0,INVALID,0,VALID,114,VALID,2.41597,
2006-05-24, 13:44:00,VALID,914.045,VALID,0,VALID,48.2523,VALID,0.0169808,INVALID,0,VALID,114,VALID,2.33848,
2006-05-24, 13:45:00,VALID,914.019,VALID,0,VALID,48.2828,VALID,0.0849042,VALID,-0.0016,VALID,123,VALID,2.18006,
2006-05-24, 13:46:00,VALID,914.001,VALID,0,VALID,48.7495,VALID,0,VALID,-0.0016,VALID,115,VALID,1.75949,
2006-05-24, 13:47:00,VALID,913.99,VALID,0,VALID,48.4087,VALID,0,INVALID,0,VALID,90,VALID,2.25055,
2006-05-24, 13:48:00,VALID,913.97,VALID,0,VALID,48.5003,VALID,0,INVALID,0,VALID,104,VALID,1.80238,
2006-05-24, 13:49:00,VALID,913.967,VALID,0,VALID,48.8004,VALID,0,INVALID,0,VALID,92,VALID,1.56328,
2006-05-24, 13:50:00,VALID,913.949,VALID,0,VALID,47.6012,VALID,0,INVALID,0,VALID,116,VALID,1.76072,
2006-05-24, 13:51:00,VALID,913.92,VALID,0,VALID,45.966,VALID,0,INVALID,0,VALID,106,VALID,2.22218,
2006-05-24, 13:52:00,VALID,913.878,VALID,0,VALID,46.28,VALID,-0.0169808,VALID,-0.0016,VALID,134,VALID,1.96314,
2006-05-24, 13:53:00,VALID,913.851,VALID,0,VALID,46.701,VALID,-0.0849042,VALID,-0.0016,VALID,126,VALID,2.21484,
2006-05-24, 13:54:00,VALID,913.837,VALID,0,VALID,48.5664,VALID,0,INVALID,0,VALID,110,VALID,1.32156,
2006-05-24, 13:55:00,VALID,913.811,VALID,0,VALID,48.5295,VALID,0,INVALID,0,VALID,114,VALID,1.68022,
2006-05-24, 13:56:00,VALID,913.813,VALID,0,VALID,48.1239,VALID,0.0169808,INVALID,0,VALID,107,VALID,2.36235,
2006-05-24, 13:57:00,VALID,913.798,VALID,0,VALID,47.9204,VALID,0,INVALID,0,VALID,112,VALID,2.13783,
2006-05-24, 13:58:00,VALID,913.781,VALID,0,VALID,49.4985,VALID,0.0169808,VALID,-0.0016,VALID,107,VALID,1.64007,
2006-05-24, 13:59:00,VALID,913.759,VALID,0,VALID,50.3543,VALID,0.0339617,VALID,-0.0016,VALID,121,VALID,1.71154,
2006-05-24, 14:00:00,VALID,913.738,VALID,0,VALID,50.6022,VALID,0,INVALID,0,VALID,120,VALID,1.94077,
2006-05-24, 14:01:00,VALID,913.724,VALID,0,VALID,50.1216,VALID,0.0339617,INVALID,0,VALID,122,VALID,1.89644,
2006-05-24, 14:02:00,VALID,913.727,VALID,0,VALID,50.2614,VALID,0,INVALID,0,VALID,103,VALID,1.97293,
2006-05-24, 14:03:00,VALID,913.732,VALID,0,VALID,50.3911,VALID,0,INVALID,0,VALID,73,VALID,1.74162,
2006-05-24, 14:04:00,VALID,913.729,VALID,0,VALID,49.4552,VALID,0,INVALID,0,VALID,90,VALID,2.03348,
2006-05-24, 14:05:00,VALID,913.712,VALID,0,VALID,49.4336,VALID,-0.0169808,INVALID,0,VALID,104,VALID,2.32794,
2006-05-24, 14:06:00,VALID,913.703,VALID,0,VALID,48.4596,VALID,0.0169808,VALID,-0.0016,VALID,111,VALID,2.97879,
2006-05-24, 14:07:00,VALID,913.687,VALID,0,VALID,49.7808,VALID,0.0849042,VALID,-0.0016,VALID,101,VALID,2.29215,
2006-05-24, 14:08:00,VALID,913.687,VALID,0,VALID,50.8655,VALID,-0.0339617,INVALID,0,VALID,103,VALID,1.88917,
2006-05-24, 14:09:00,VALID,913.701,VALID,0,VALID,50.573,VALID,0,INVALID,0,VALID,114,VALID,2.31367,
2006-05-24, 14:10:00,VALID,913.712,VALID,0,VALID,50.2029,VALID,-0.0339617,INVALID,0,VALID,117,VALID,2.23828,
2006-05-24, 14:11:00,VALID,913.736,VALID,0,VALID,50.5717,VALID,0,INVALID,0,VALID,118,VALID,2.15764,
2006-05-24, 14:12:00,VALID,913.733,VALID,0,VALID,49.501,VALID,0,INVALID,0,VALID,118,VALID,1.58984,
2006-05-24, 14:13:00,VALID,913.735,VALID,0,VALID,48.9695,VALID,0,INVALID,0,VALID,125,VALID,1.72205,
2006-05-24, 14:14:00,VALID,913.723,VALID,0,VALID,49.9741,VALID,0,INVALID,0,VALID,121,VALID,1.33371,
2006-05-24, 14:15:00,VALID,913.7,VALID,0,VALID,48.6961,VALID,0.0849042,VALID,-0.0016,VALID,90,VALID,2.52511,
2006-05-24, 14:16:00,VALID,913.677,VALID,0,VALID,49.1323,VALID,0,INVALID,0,VALID,87,VALID,1.82199,
2006-05-24, 14:17:00,VALID,913.643,VALID,0,VALID,49.2403,VALID,0,INVALID,0,VALID,88,VALID,1.19204,
2006-05-24, 14:19:00,VALID,913.549,VALID,0,VALID,51.4924,VALID,0.040754,VALID,-0.0016,VALID,131,VALID,2.14709,
2006-05-24, 14:20:00,VALID,913.514,VALID,0,VALID,50.9659,VALID,-0.0509425,INVALID,0,VALID,128,VALID,2.24181,
2006-05-24, 14:21:00,VALID,913.502,VALID,0,VALID,50.7803,VALID,-0.0339617,VALID,-0.0016,VALID,114,VALID,2.98171,
2006-05-24, 14:22:00,VALID,913.481,VALID,0,VALID,50.8082,VALID,0.0679233,VALID,-0.0016,VALID,106,VALID,2.40048,
2006-05-24, 14:24:00,VALID,913.47,VALID,0,VALID,50.3739,VALID,-0.020377,INVALID,0,VALID,124,VALID,2.47495,
2006-05-24, 14:25:00,VALID,913.485,VALID,0,VALID,49.1513,VALID,-0.0169808,INVALID,0,VALID,123,VALID,2.27287,
2006-05-24, 14:26:00,VALID,913.465,VALID,0,VALID,48.4138,VALID,0,INVALID,0,VALID,117,VALID,2.19417,
2006-05-24, 14:27:00,VALID,913.442,VALID,0,VALID,50.2742,VALID,0,INVALID,0,VALID,125,VALID,2.3099,
2006-05-24, 14:29:00,VALID,913.418,VALID,0,VALID,47.1702,VALID,0,INVALID,0,VALID,113,VALID,2.34456,
2006-05-24, 14:30:00,VALID,913.417,VALID,0,VALID,50.3148,VALID,0,INVALID,0,VALID,117,VALID,1.55145,
2006-05-24, 14:31:00,VALID,913.419,VALID,0,VALID,49.4985,VALID,0,INVALID,0,VALID,118,VALID,1.62622,
2006-05-24, 14:32:00,VALID,913.434,VALID,0,VALID,49.8812,VALID,0,INVALID,0,VALID,119,VALID,1.69095,
2006-05-24, 14:33:00,VALID,913.449,VALID,0,VALID,49.604,VALID,0,INVALID,0,VALID,148,VALID,1.11261,
2006-05-24, 14:34:00,VALID,913.447,VALID,0,VALID,47.5224,VALID,0,INVALID,0,VALID,145,VALID,2.40625,
2006-05-24, 15:06:00,VALID,913.32,VALID,0,VALID,45.9639,VALID,0,VALID,-0.0016,VALID,206,VALID,0.283594,
2006-05-24, 15:07:00,VALID,913.311,VALID,0,VALID,47.0316,VALID,0.0339617,VALID,-0.0016,VALID,202,VALID,0.561384,
2006-05-24, 15:08:00,VALID,913.281,VALID,0,VALID,47.1575,VALID,0,VALID,-0.0016,VALID,180,VALID,0.668255,
2006-05-24, 15:09:00,VALID,913.261,VALID,0,VALID,46.9311,VALID,0.0339617,VALID,-0.0016,VALID,186,VALID,0.785251,
2006-05-24, 15:10:00,VALID,913.223,VALID,0,VALID,47.0341,VALID,0,VALID,-0.0016,VALID,200,VALID,0.689098,
2006-05-24, 15:11:00,VALID,913.213,VALID,0,VALID,48.8563,VALID,0.0169808,VALID,-0.0016,VALID,226,VALID,0.269903,
2006-05-24, 15:12:00,VALID,913.218,VALID,0,VALID,49.206,VALID,0,VALID,-0.0016,VALID,252,VALID,0.512429,
2006-05-24, 15:13:00,VALID,913.232,VALID,0,VALID,50.1114,VALID,0.0169808,VALID,-0.0016,VALID,280,VALID,0.25,
2006-05-24, 15:14:00,VALID,913.23,VALID,0,VALID,50.9532,VALID,0.0169808,VALID,-0.0016,VALID,257,VALID,0.403161,
2006-05-24, 15:15:00,VALID,913.21,VALID,0,VALID,51.0804,VALID,0.0169808,VALID,-0.0016,VALID,257,VALID,0.0731534,
2006-05-24, 15:16:00,VALID,913.181,VALID,0,VALID,50.4992,VALID,0.0509425,VALID,-0.0016,VALID,183,VALID,0.313244,
2006-05-24, 15:17:00,VALID,913.152,VALID,0,VALID,50.3416,VALID,0,VALID,-0.0016,VALID,160,VALID,0.339021,
2006-05-24, 15:18:00,VALID,913.137,VALID,0,VALID,51.9908,VALID,0,INVALID,0,VALID,68,VALID,0.700218,
2006-05-24, 15:19:00,VALID,913.131,VALID,0,VALID,53.7088,VALID,0.0169808,VALID,-0.0016,VALID,42,VALID,1.00174,
2006-05-24, 15:20:00,VALID,913.128,VALID,0,VALID,53.621,VALID,0,INVALID,0,VALID,40,VALID,0.821403,
2006-05-24, 15:21:00,VALID,913.142,VALID,0,VALID,51.43,VALID,0,INVALID,0,VALID,42,VALID,0.446615,
2006-05-24, 15:22:00,VALID,913.154,VALID,0,VALID,51.9527,VALID,0,INVALID,0,VALID,45,VALID,0.423735,
2006-05-24, 15:23:00,VALID,913.153,VALID,0,VALID,52.062,VALID,0,INVALID,0,VALID,88,VALID,0.571948,
2006-05-24, 15:24:00,VALID,913.153,VALID,0,VALID,51.8878,VALID,0,INVALID,0,VALID,104,VALID,0.711648,
2006-05-24, 15:25:00,VALID,913.146,VALID,0,VALID,53.0272,VALID,0,INVALID,0,VALID,117,VALID,0.518555,
2006-05-24, 15:26:00,VALID,913.141,VALID,0,VALID,53.5117,VALID,0,INVALID,0,VALID,117,VALID,0.189135,
2006-05-24, 15:27:00,VALID,913.149,VALID,0,VALID,53.4506,VALID,0,INVALID,0,VALID,146,VALID,0.247523,
2006-05-24, 15:28:00,VALID,913.128,VALID,0,VALID,54.6955,VALID,0,INVALID,0,VALID,204,VALID,0.405449,
2006-05-24, 15:29:00,VALID,913.126,VALID,0,VALID,54.7629,VALID,0,INVALID,0,VALID,211,VALID,0.722842,
2006-05-24, 15:30:00,VALID,913.127,VALID,0,VALID,54.7566,VALID,0,INVALID,0,VALID,203,VALID,0.670455,
2006-05-24, 15:31:00,VALID,913.131,VALID,0,VALID,55.5488,VALID,-0.0169808,INVALID,0,VALID,199,VALID,0.495384,
2006-05-24, 15:32:00,VALID,913.133,VALID,0,VALID,54.707,VALID,-0.0169808,INVALID,0,VALID,172,VALID,0.650298,
2006-05-24, 15:33:00,VALID,913.123,VALID,0,VALID,55.8718,VALID,0,INVALID,0,VALID,182,VALID,0.556734,
2006-05-24, 15:34:00,VALID,913.121,VALID,0,VALID,56.1172,VALID,0,INVALID,0,VALID,170,VALID,0.609561,
2006-05-24, 15:35:00,VALID,913.13,VALID,0,VALID,56.0841,VALID,0,INVALID,0,VALID,170,VALID,0.757212,
2006-05-24, 15:36:00,VALID,913.135,VALID,0,VALID,55.2754,VALID,-0.0169808,INVALID,0,VALID,147,VALID,0.98819,
2006-05-24, 15:37:00,VALID,913.127,VALID,0,VALID,56.1731,VALID,0,INVALID,0,VALID,150,VALID,0.654433,
2006-05-24, 15:38:00,VALID,913.146,VALID,0,VALID,56.6411,VALID,0,INVALID,0,VALID,150,VALID,0.763808,
2006-05-24, 15:39:00,VALID,913.149,VALID,0,VALID,56.2571,VALID,0,INVALID,0,VALID,152,VALID,0.509909,
2006-05-24, 15:40:00,VALID,913.157,VALID,0,VALID,56.2316,VALID,0,INVALID,0,VALID,169,VALID,0.440476,
2006-05-24, 15:41:00,VALID,913.153,VALID,0,VALID,55.4458,VALID,-0.0169808,INVALID,0,VALID,198,VALID,0.716025,
2006-05-24, 15:42:00,VALID,913.173,VALID,0,VALID,56.4669,VALID,-0.0169808,INVALID,0,VALID,227,VALID,0.813058,
2006-05-24, 15:43:00,VALID,913.186,VALID,0,VALID,55.6187,VALID,0,INVALID,0,VALID,243,VALID,0.978016,
2006-05-24, 15:44:00,VALID,913.202,VALID,0,VALID,56.182,VALID,0,INVALID,0,VALID,245,VALID,0.662972,
2006-05-24, 15:45:00,VALID,913.176,VALID,0,VALID,56.8369,VALID,0,INVALID,0,VALID,246,VALID,0.594336,
2006-05-24, 15:46:00,VALID,913.173,VALID,0,VALID,57.2756,VALID,0,INVALID,0,VALID,229,VALID,0.540737,
2006-05-24, 15:47:00,VALID,913.167,VALID,0,VALID,58.1187,VALID,0,INVALID,0,VALID,223,VALID,0.803646,
2006-05-24, 15:48:00,VALID,913.133,VALID,0,VALID,58.3298,VALID,-0.0169808,INVALID,0,VALID,213,VALID,1.62713,
2006-05-24, 15:49:00,VALID,913.1,VALID,0,VALID,59.9473,VALID,0,INVALID,0,VALID,248,VALID,1.47413,
2006-05-24, 15:50:00,VALID,913.094,VALID,0,VALID,60.6721,VALID,-0.0169808,VALID,-0.0016,VALID,223,VALID,1.22098,
2006-05-24, 15:51:00,VALID,913.079,VALID,0,VALID,61.2456,VALID,0.0169808,INVALID,0,VALID,219,VALID,0.728795,
2006-05-24, 15:52:00,VALID,913.065,VALID,0,VALID,61.627,VALID,0,INVALID,0,VALID,8,VALID,0.502418,
2006-05-24, 15:53:00,VALID,913.038,VALID,0,VALID,61.9221,VALID,0,INVALID,0,VALID,25,VALID,0.899346,
2006-05-24, 15:54:00,VALID,913.04,VALID,0,VALID,62.7397,VALID,0,VALID,-0.0016,VALID,19,VALID,0.608842,
2006-05-24, 15:55:00,VALID,913.016,VALID,0,VALID,63.0309,VALID,-0.0849042,VALID,-0.0016,VALID,222,VALID,1.02121,
2006-05-24, 15:56:00,VALID,913.034,VALID,0,VALID,62.858,VALID,0.0169808,VALID,-0.0016,VALID,236,VALID,0.75816,
2006-05-24, 15:57:00,VALID,913.054,VALID,0,VALID,63.8155,VALID,0,INVALID,0,VALID,238,VALID,0.474653,
2006-05-24, 15:58:00,VALID,913.072,VALID,0,VALID,63.6985,VALID,0,INVALID,0,VALID,231,VALID,0.442472,
2006-05-24, 15:59:00,VALID,913.09,VALID,0,VALID,63.5777,VALID,0,INVALID,0,VALID,232,VALID,1.14553,
2006-05-24, 16:00:00,VALID,913.116,VALID,0,VALID,64.1906,VALID,0,VALID,-0.0016,VALID,234,VALID,0.947266,
2006-05-24, 16:01:00,VALID,913.144,VALID,0,VALID,64.1359,VALID,0.0169808,INVALID,0,VALID,242,VALID,0.368641,
2006-05-24, 16:02:00,VALID,913.183,VALID,0,VALID,64.1423,VALID,0.0169808,INVALID,0,VALID,241,VALID,0.404861,
2006-05-24, 16:03:00,VALID,913.24,VALID,0,VALID,64.3546,VALID,0,INVALID,0,VALID,241,VALID,0.358103,
2006-05-24, 16:04:00,VALID,913.29,VALID,0,VALID,64.1461,VALID,0,INVALID,0,VALID,245,VALID,0.347842,